Hourly Weather Roundup
Issued by NWS Central Illinois

Home | Current Version | Previous Version | Graphics & Text | Print | Product List | Glossary On
Versions: 1 2 3 4 5 6 7 8 9 10 11 12 13 14 15 16 17 18 19 20 21 22 23 24 25 26 27 28 29 30 31 32 33 34 35 36 37 38 39 40 41 42 43 44 45 46 47 48 49 50
000
NZUS43 KILX 251610
HWRILX

AREA WEATHER ROUNDUP
NATIONAL WEATHER SERVICE, LINCOLN IL
1100 AM CDT SAT OCT 25 2014


CITY           SKY/WX    TMP DP  RH WIND       PRES   REMARKS
BLOOMINGTON    SUNNY     63  58  83 W8        30.02S
CHAMPAIGN      MOSUNNY   61  57  87 W12       30.01R FOG
DECATUR        MOSUNNY   65  59  81 NW7       30.02F HAZE
FLORA          SUNNY     69  59  70 NW6       30.03S
GALESBURG      SUNNY     63  53  70 N7        30.04R
JACKSONVILLE   NOT AVBL
LACON          SUNNY     62  55  79 W5        30.01R
LAWRENCEVILLE  SUNNY     67  59  75 NW5       30.02S
LITCHFIELD     CLOUDY    61  59  92 NW5       30.05S FOG
$$


CITY           SKY/WX    TMP DP  RH WIND       PRES   REMARKS
LINCOLN        SUNNY     69  59  69 W5        29.99F
MACOMB         SUNNY     63  57  83 NW9       30.07R
MATTOON        SUNNY     67  59  75 W10       30.01S
MT CARMEL AP   SUNNY     70  61  73 CALM      30.02S
OLNEY-NOBLE AP SUNNY     68  59  73 W5        30.02S
PARIS          SUNNY     69  59  71 W8        30.01S
PEORIA         MOSUNNY   59  55  87 NW6       30.03R
PONTIAC        PTSUNNY   63  58  83 W9        30.00S HAZE
RANTOUL        MOSUNNY   62  57  83 NW7       29.99F HAZE
ROBINSON       SUNNY     69  59  69 NW3       30.01F
SPRINGFIELD    SUNNY     68  60  75 W6        30.04R HAZE
TAYLORVILLE    SUNNY     66  59  77 NW6       30.03F
$$

...REGIONAL REPORTS...


CITY           SKY/WX    TMP DP  RH WIND       PRES   REMARKS
CHICAGO O`HARE MOSUNNY   65  48  54 NW14      29.95R
KANKAKEE       MOSUNNY   62  56  81 W13       29.97F
MOLINE         SUNNY     66  45  46 NW9       30.03R
MOUNT VERNON   SUNNY     70  61  73 W3        30.04F
PITTSFIELD     SUNNY     67  60  79 W3        30.06S
QUINCY         SUNNY     67  57  70 VRB3      30.05S
ROCKFORD       SUNNY     66  45  46 NW8       29.99F
$$


CITY           SKY/WX    TMP DP  RH WIND       PRES   REMARKS
BURLINGTON     SUNNY     66  52  60 N7        30.05R
CEDAR RAPIDS   SUNNY     62  48  60 N8        30.06R
DES MOINES     MOSUNNY   64  44  48 N7        30.10S
KIRKSVILLE     SUNNY     68  53  58 N7        30.09R
OTTUMWA        SUNNY     64  46  52 N8        30.08R
ST LOUIS       SUNNY     72  62  71 W3        30.05S
$$


CITY           SKY/WX    TMP DP  RH WIND       PRES   REMARKS
TERRE HAUTE    SUNNY     65  56  72 VRB5      30.00S
EVANSVILLE     SUNNY     68  58  70 W7        30.03F
INDIANAPOLIS   MOSUNNY   65  55  70 W9        29.97F
LAFAYETTE      SUNNY     63  55  75 W13       29.97R
MADISON        SUNNY     63  41  44 NW10G20   29.96F
MILWAUKEE      MOSUNNY   63  42  46 W15G22    29.92R
$$





USA.gov is the U.S. government's official web portal to all federal, state and local government web resources and services.